GW0851 Weather Reports


Display with metric or nautical units.
time (UTC)temp
F
wind
direction
speed
MPH
gust
MPH
rain 1hr
in
rain 24hr
in
rain mn
in
humidity
%
barometer
mb
20260504081512 35 55 0.0 0.0 0.00 0.00 0.00 91 1012.8
20260504060104 37 55 0.0 0.0 0.00 0.00 0.00 89 1012.7
20260504044601 39 55 0.0 0.0 0.00 0.00 0.00 85 1012.7
20260504043051 39 55 0.0 0.0 0.00 0.00 0.00 84 1012.6
20260504041550 40 55 0.0 0.0 0.00 0.00 0.00 82 1012.6
20260504040042 40 55 0.0 0.0 0.00 0.00 0.00 80 1012.4
20260504034550 41 55 0.0 0.0 0.00 0.00 0.00 79 1012.2
20260504033050 41 55 0.0 0.0 0.00 0.00 0.00 77 1012.0
20260504031536 42 55 0.0 0.0 0.00 0.00 0.00 75 1012.0
20260504030030 43 55 0.0 0.0 0.00 0.00 0.00 74 1011.9
20260504024530 44 55 0.0 0.0 0.00 0.00 0.00 71 1011.9
20260504023027 45 55 0.0 0.0 0.00 0.00 0.00 68 1011.8
20260504021534 46 55 0.0 0.0 0.00 0.00 0.00 66 1011.8
20260504020013 47 55 0.0 0.0 0.00 0.00 0.00 64 1011.8
20260504014502 48 55 0.0 0.0 0.00 0.00 0.00 61 1011.8
20260504013106 49 55 0.0 0.0 0.00 0.00 0.00 59 1011.7
20260504011559 50 55 0.0 1.0 0.00 0.00 0.00 56 1011.7
20260504010101 51 55 0.0 0.0 0.00 0.00 0.00 53 1011.5
20260504004556 52 55 0.0 0.0 0.00 0.00 0.00 51 1011.5
20260504003053 54 55 0.0 1.0 0.00 0.00 0.00 48 1011.2
20260504001609 55 55 0.0 2.0 0.00 0.00 0.00 45 1011.0
20260504000049 56 68 2.0 8.0 0.00 0.00 0.00 41 1010.8
20260503234546 57 74 2.0 12.0 0.00 0.00 0.00 40 1010.7
20260503233046 58 132 3.0 10.0 0.00 0.00 0.00 41 1010.6
20260503231545 58 101 2.0 11.0 0.00 0.00 0.00 39 1010.5
20260503230041 59 115 7.0 16.0 0.00 0.00 0.00 38 1010.4
20260503224541 59 100 5.0 12.0 0.00 0.00 0.00 37 1010.4
20260503223033 59 80 2.0 11.0 0.00 0.00 0.00 37 1010.3
20260503221538 59 96 3.0 18.0 0.00 0.00 0.00 38 1010.4
20260503220033 60 88 8.0 18.0 0.00 0.00 0.00 37 1010.4
20260503214529 60 109 7.0 16.0 0.00 0.00 0.00 37 1010.4
20260503213031 59 101 1.0 16.0 0.00 0.00 0.00 38 1010.3
20260503211524 59 87 3.0 11.0 0.00 0.00 0.00 37 1010.1
20260503210021 59 88 4.0 10.0 0.00 0.00 0.00 36 1010.2
20260503204524 59 130 1.0 14.0 0.00 0.00 0.00 40 1010.1
20260503203015 59 89 4.0 12.0 0.00 0.00 0.00 38 1010.4
20260503201524 59 107 4.0 14.0 0.00 0.00 0.00 35 1010.6
20260503200011 59 108 7.0 14.0 0.00 0.00 0.00 35 1010.5
20260503194507 59 72 5.0 18.0 0.00 0.00 0.00 35 1010.9
20260503193007 59 193 5.0 21.0 0.00 0.00 0.00 34 1011.0
20260503191506 59 238 7.0 17.0 0.00 0.00 0.00 34 1011.1
20260503190011 58 238 3.0 17.0 0.00 0.00 0.00 35 1011.4
20260503184502 58 286 3.0 21.0 0.00 0.00 0.00 35 1011.6
20260503183114 58 52 6.0 19.0 0.00 0.00 0.00 36 1011.7
20260503181623 57 144 6.0 17.0 0.00 0.00 0.00 38 1011.9
20260503180134 57 116 5.0 15.0 0.00 0.00 0.00 41 1011.9
20260503174559 56 222 2.0 18.0 0.00 0.00 0.00 40 1012.2
20260503173102 56 107 6.0 15.0 0.00 0.00 0.00 39 1012.4
20260503171551 55 82 9.0 20.0 0.00 0.00 0.00 40 1012.4
20260503100104 40 107 0.0 3.0 0.00 0.00 0.00 69 1011.9